CW8443 Weather Reports


time (UTC)temp
C
wind
direction
speed
KPH
gust
KPH
rain 1hr
cm
rain 24hr
cm
rain mn
cm
humidity
%
barometer
mb
20260509185747 11 5 0.0 0.0 0.00 0.00 0.00 57 1014.4
20260509185237 11 5 0.0 0.0 0.00 0.00 0.00 57 1014.4
20260509184753 11 5 0.0 0.0 0.00 0.00 0.00 57 1014.4
20260509184243 11 5 0.0 0.0 0.00 0.00 0.00 57 1014.3
20260509183238 11 5 0.0 0.0 0.00 0.00 0.00 57 1014.3
20260509183142 11 5 0.0 0.0 0.00 0.00 0.00 57 1014.3
20260509182241 11 5 0.0 0.0 0.00 0.00 0.00 57 1014.2
20260509181247 11 5 0.0 0.0 0.00 0.00 0.00 56 1014.1
20260509180740 11 5 0.0 0.0 0.00 0.00 0.00 57 1014.1
20260509180243 11 5 0.0 0.0 0.00 0.00 0.00 56 1014.1
20260509180127 11 5 0.0 0.0 0.00 0.00 0.00 57 1014.1
20260509175750 11 5 0.0 0.0 0.00 0.00 0.00 57 1013.8
20260509174739 11 5 0.0 0.0 0.00 0.00 0.00 55 1013.8
20260509174253 11 5 0.0 0.0 0.00 0.00 0.00 55 1013.8
20260509173744 11 5 0.0 0.0 0.00 0.00 0.00 55 1013.8
20260509173243 11 5 0.0 0.0 0.00 0.00 0.00 55 1013.8
20260509173127 11 5 0.0 0.0 0.00 0.00 0.00 55 1013.8
20260509172749 11 5 0.0 0.0 0.00 0.00 0.00 54 1013.6
20260509172239 11 5 0.0 0.0 0.00 0.00 0.00 54 1013.6
20260509171750 11 5 0.0 0.0 0.00 0.00 0.00 53 1013.6
20260509170744 11 5 0.0 0.0 0.00 0.00 0.00 53 1013.5
20260509170244 11 5 0.0 0.0 0.00 0.00 0.00 53 1013.5
20260509170128 11 5 0.0 0.0 0.00 0.00 0.00 53 1013.5
20260509165751 11 5 0.0 0.0 0.00 0.00 0.00 53 1013.6
20260509165239 11 5 0.0 0.0 0.00 0.00 0.00 53 1013.6
20260509164737 11 5 0.0 0.0 0.00 0.00 0.00 52 1013.6
20260509164246 11 5 0.0 0.0 0.00 0.00 0.00 52 1013.5
20260509163737 12 5 0.0 0.0 0.00 0.00 0.00 50 1013.5
20260509163239 12 5 0.0 0.0 0.00 0.00 0.00 50 1013.5
20260509163143 12 5 0.0 0.0 0.00 0.00 0.00 50 1013.5
20260509162744 12 5 0.0 0.0 0.00 0.00 0.00 50 1013.5
20260509162254 12 5 0.0 0.0 0.00 0.00 0.00 50 1013.5
20260509161748 12 5 0.0 0.0 0.00 0.00 0.00 50 1013.5
20260509160737 12 5 0.0 0.0 0.00 0.00 0.00 49 1013.3
20260509160128 12 5 0.0 0.0 0.00 0.00 0.00 49 1013.3
20260509155749 12 5 0.0 0.0 0.00 0.00 0.00 49 1013.4
20260509155241 12 5 0.0 0.0 0.00 0.00 0.00 49 1013.4
20260509154735 12 5 0.0 0.0 0.00 0.00 0.00 48 1013.4
20260509154247 12 5 0.0 0.0 0.00 0.00 0.00 47 1013.3
20260509153737 12 5 0.0 0.0 0.00 0.00 0.00 47 1013.3
20260509153253 12 5 0.0 0.0 0.00 0.00 0.00 47 1013.3
20260509153142 13 7 0.0 0.0 0.00 0.00 0.00 47 1013.3
20260509152741 13 5 0.0 0.0 0.00 0.00 0.00 46 1013.4
20260509152252 13 5 0.0 0.0 0.00 0.00 0.00 45 1013.4
20260509151747 13 5 0.0 0.0 0.00 0.00 0.00 45 1013.4
20260509151239 13 5 0.0 0.0 0.00 0.00 0.00 44 1013.4
20260509150736 13 5 0.0 0.0 0.00 0.00 0.00 44 1013.4
20260509150129 13 5 0.0 0.0 0.00 0.00 0.00 43 1013.4
20260509145751 13 5 0.0 0.0 0.00 0.00 0.00 43 1013.3
20260509144736 13 7 0.0 0.0 0.00 0.00 0.00 43 1013.3
20260509143741 13 5 0.0 0.0 0.00 0.00 0.00 41 1013.2
20260509143243 13 7 0.0 0.0 0.00 0.00 0.00 40 1013.2
20260509143126 13 5 0.0 0.0 0.00 0.00 0.00 40 1013.2
20260509142749 13 7 0.0 0.0 0.00 0.00 0.00 40 1012.9
20260509142241 13 5 0.0 0.0 0.00 0.00 0.00 40 1012.9
20260509141736 13 7 0.0 0.0 0.00 0.00 0.00 40 1012.9
20260509141245 13 5 0.0 0.0 0.00 0.00 0.00 40 1012.8
20260509140742 14 5 0.0 0.0 0.00 0.00 0.00 40 1012.8
20260509140240 14 5 0.0 0.0 0.00 0.00 0.00 39 1012.8
20260509140143 14 5 0.0 0.0 0.00 0.00 0.00 39 1012.8
20260509135742 14 5 0.0 0.0 0.00 0.00 0.00 39 1012.6
20260509135252 14 5 0.0 0.0 0.00 0.00 0.00 38 1012.6
20260509134746 14 5 0.0 0.0 0.00 0.00 0.00 38 1012.6
20260509134236 14 5 0.0 0.0 0.00 0.00 0.00 38 1012.7
20260509133745 14 5 0.0 0.0 0.00 0.00 0.00 37 1012.7
20260509133244 15 7 0.0 0.0 0.00 0.00 0.00 36 1012.7
20260509132753 15 5 0.0 0.0 0.00 0.00 0.00 35 1012.6
20260509132243 15 8 0.0 0.0 0.00 0.00 0.00 34 1012.6
20260509131736 15 25 0.0 0.0 0.00 0.00 0.00 34 1012.6
20260509131246 15 38 0.0 0.0 0.00 0.00 0.00 33 1012.3
20260509130739 15 38 0.0 0.0 0.00 0.00 0.00 32 1012.3
20260509130254 15 38 0.0 0.0 0.00 0.00 0.00 30 1012.3
20260509130137 15 38 0.0 0.0 0.00 0.00 0.00 30 1012.3
20260509125235 16 38 0.0 0.0 0.00 0.00 0.00 28 1012.2
20260509124748 16 38 0.0 0.0 0.00 0.00 0.00 28 1012.2
20260509124239 16 38 0.0 0.0 0.00 0.00 0.00 28 1012.1
20260509123749 16 38 0.0 0.0 0.00 0.00 0.00 28 1012.1
20260509123247 16 38 0.0 0.0 0.00 0.00 0.00 27 1012.1
20260509122736 16 38 0.0 0.0 0.00 0.00 0.00 27 1012.2
20260509122245 16 38 0.0 0.0 0.00 0.00 0.00 27 1012.2
20260509121734 16 38 0.0 0.0 0.00 0.00 0.00 27 1012.2
20260509120749 16 38 0.0 0.0 0.00 0.00 0.00 25 1012.2
20260509120248 16 41 0.0 0.0 0.00 0.00 0.00 25 1012.2
20260509120132 16 39 0.0 0.0 0.00 0.00 0.00 25 1012.2
20260509115753 16 39 0.0 0.0 0.00 0.00 0.00 25 1012.0
20260509115241 17 41 0.0 0.0 0.00 0.00 0.00 25 1012.0
20260509114735 17 39 0.0 0.0 0.00 0.00 0.00 26 1012.0
20260509114245 17 41 0.0 0.0 0.00 0.00 0.00 26 1011.9
20260509113738 17 39 0.0 0.0 0.00 0.00 0.00 24 1011.9
20260509113235 17 39 0.0 0.0 0.00 0.00 0.00 24 1011.9
20260509113139 17 41 0.0 0.0 0.00 0.00 0.00 24 1011.9
20260509112737 17 39 0.0 0.0 0.00 0.00 0.00 24 1011.6
20260509112248 17 39 0.0 0.0 0.00 0.00 0.00 24 1011.6
20260509111742 17 39 0.0 0.0 0.00 0.00 0.00 23 1011.6
20260509111253 17 39 0.0 0.0 0.00 0.00 0.00 23 1011.3
20260509110748 17 39 0.0 0.0 0.00 0.00 0.00 24 1011.3
20260509110244 17 39 0.0 0.0 0.00 0.00 0.00 23 1011.3
20260509105752 18 39 0.0 0.0 0.00 0.00 0.00 22 1011.3
20260509105242 18 39 0.0 0.0 0.00 0.00 0.00 22 1011.3
20260509104249 18 39 0.0 0.0 0.00 0.00 0.00 22 1010.9
20260509103738 18 38 0.0 0.0 0.00 0.00 0.00 22 1010.9
20260509103239 18 18 0.0 0.0 0.00 0.00 0.00 21 1010.9
20260509103125 18 22 0.0 0.0 0.00 0.00 0.00 21 1010.9
20260509102752 18 24 0.0 0.0 0.00 0.00 0.00 21 1010.6
20260509102241 18 1 0.0 0.0 0.00 0.00 0.00 21 1010.6
20260509101737 18 24 0.0 0.0 0.00 0.00 0.00 21 1010.6
20260509101247 18 347 0.0 0.0 0.00 0.00 0.00 21 1010.3
20260509100741 18 1 0.0 0.0 0.00 0.00 0.00 20 1010.3
20260509100240 18 350 0.0 0.0 0.00 0.00 0.00 21 1010.3
20260509100144 18 41 0.0 0.0 0.00 0.00 0.00 21 1010.3
20260509095746 18 15 0.0 0.0 0.00 0.00 0.00 20 1010.1
20260509094753 19 26 0.0 0.0 0.00 0.00 0.00 20 1010.1
20260509094244 19 12 0.0 0.0 0.00 0.00 0.00 20 1009.9
20260509093249 19 35 0.0 0.0 0.00 0.00 0.00 20 1009.9
20260509092736 19 41 0.0 0.0 0.00 0.00 0.00 20 1009.7
20260509091747 20 28 0.0 0.0 0.00 0.00 0.00 20 1009.7
20260509091239 20 322 0.0 0.0 0.00 0.00 0.00 19 1009.3
20260509090753 20 5 0.0 0.0 0.00 0.00 0.00 19 1009.3
20260509090250 20 333 0.0 0.0 0.00 0.00 0.00 19 1009.4
20260509090134 20 338 0.0 0.0 0.00 0.00 0.00 19 1009.4
20260509085739 20 41 0.0 0.0 0.00 0.00 0.00 19 1009.0
20260509085247 21 34 0.0 0.0 0.00 0.00 0.00 19 1009.0
20260509084742 21 355 0.0 0.0 0.00 0.00 0.00 19 1009.0
20260509084251 21 1 0.0 0.0 0.00 0.00 0.00 19 1008.6
20260509083740 21 38 0.0 0.0 0.00 0.00 0.00 19 1008.6
20260509083237 21 46 0.0 0.0 0.00 0.00 0.00 18 1008.6
20260509083141 21 49 0.0 0.0 0.00 0.00 0.00 18 1008.6
20260509082741 21 25 0.0 0.0 0.00 0.00 0.00 18 1008.4
20260509082248 21 45 0.0 0.0 0.00 0.00 0.00 19 1008.4
20260509081741 21 25 0.0 0.0 0.00 0.00 0.00 18 1008.4
20260509081252 22 31 0.0 0.0 0.00 0.00 0.00 18 1008.1
20260509080745 22 32 0.0 0.0 0.00 0.00 0.00 18 1008.1
20260509080242 22 32 0.0 0.0 0.00 0.00 0.00 19 1008.1
20260509080146 22 28 0.0 0.0 0.00 0.00 0.00 18 1008.1
20260509075742 22 323 0.0 0.0 0.00 0.00 0.00 19 1007.9
20260509075253 22 45 0.0 0.0 0.00 0.00 0.00 19 1007.9
20260509074750 22 358 0.0 0.0 0.00 0.00 0.00 19 1007.9
20260509074236 22 21 0.0 0.0 0.00 0.00 0.00 19 1007.5
20260509073744 22 341 0.0 0.0 0.00 0.00 0.00 19 1007.5
20260509073241 22 350 0.0 0.0 0.00 0.00 0.00 19 1007.5
20260509073145 22 344 0.0 0.0 0.00 0.00 0.00 19 1007.5
20260509072240 22 351 0.0 0.0 0.00 0.00 0.00 19 1007.0
20260509071737 22 357 0.0 0.0 0.00 0.00 0.00 19 1007.0
20260509071245 22 12 0.0 0.0 0.00 0.00 0.00 19 1006.7
20260509070738 22 2 0.0 0.0 0.00 0.00 0.00 19 1006.7
20260509070258 23 348 0.0 0.0 0.00 0.00 0.00 19 1006.7
20260509065241 23 348 0.0 0.0 0.00 0.00 0.00 19 1006.4
20260509064738 23 322 0.0 0.0 0.00 0.00 0.00 19 1006.4
20260509064246 23 358 0.0 0.0 0.00 0.00 0.00 18 1006.5
20260509063127 23 39 0.0 0.0 0.00 0.00 0.00 18 1006.5
20260509062749 23 353 0.0 0.0 0.00 0.00 0.00 18 1006.5
20260509062237 23 350 0.0 0.0 0.00 0.00 0.00 18 1006.5
20260509061754 23 354 0.0 0.0 0.00 0.00 0.00 18 1006.5
20260509061242 23 317 0.0 0.0 0.00 0.00 0.00 18 1006.4
20260509060740 23 344 0.0 0.0 0.00 0.00 0.00 18 1006.4
20260509060237 23 344 0.0 0.0 0.00 0.00 0.00 18 1006.4
20260509060141 22 24 0.0 0.0 0.00 0.00 0.00 18 1006.4
20260509055737 22 337 0.0 0.0 0.00 0.00 0.00 18 1006.2
20260509054749 23 338 0.0 0.0 0.00 0.00 0.00 18 1006.2
20260509053237 23 305 0.0 0.0 0.00 0.00 0.00 20 1006.2
20260509053140 23 351 0.0 0.0 0.00 0.00 0.00 20 1006.2
20260509052744 23 18 0.0 0.0 0.00 0.00 0.00 21 1006.3
20260509052252 23 34 0.0 0.0 0.00 0.00 0.00 21 1006.3
20260509051744 23 344 0.0 0.0 0.00 0.00 0.00 21 1006.3
20260509051235 23 348 0.0 0.0 0.00 0.00 0.00 21 1006.3
20260509050744 23 338 0.0 0.0 0.00 0.00 0.00 21 1006.3
20260509050240 23 48 0.0 0.0 0.00 0.00 0.00 21 1006.3
20260509050144 23 4 0.0 0.0 0.00 0.00 0.00 20 1006.3
20260509045744 23 331 0.0 0.0 0.00 0.00 0.00 21 1006.3
20260509045254 23 22 0.0 0.0 0.00 0.00 0.00 21 1006.3
20260509044747 23 17 0.0 0.0 0.00 0.00 0.00 22 1006.3
20260509044237 23 39 0.0 0.0 0.00 0.00 0.00 21 1006.4
20260509043747 23 17 0.0 0.0 0.00 0.00 0.00 22 1006.4
20260509043137 23 10 0.0 0.0 0.00 0.00 0.00 22 1006.4
20260509042741 22 355 0.0 0.0 0.00 0.00 0.00 21 1006.2
20260509042247 23 314 0.0 0.0 0.00 0.00 0.00 22 1006.2
20260509041741 23 322 0.0 0.0 0.00 0.00 0.00 21 1006.2
20260509040752 22 351 0.0 0.0 0.00 0.00 0.00 23 1006.4
20260509040250 22 46 0.0 0.0 0.00 0.00 0.00 24 1006.4
20260509040134 22 45 0.0 0.0 0.00 0.00 0.00 24 1006.4
20260509035754 22 340 0.0 0.0 0.00 0.00 0.00 24 1006.5
20260509034742 22 29 0.0 0.0 0.00 0.00 0.00 24 1006.5
20260509034251 22 36 0.0 0.0 0.00 0.00 0.00 24 1006.4
20260509033741 22 58 0.0 0.0 0.00 0.00 0.00 24 1006.4
20260509033128 22 12 0.0 0.0 0.00 0.00 0.00 26 1006.4
20260509032746 22 11 0.0 0.0 0.00 0.00 0.00 26 1006.3
20260509031751 22 35 0.0 0.0 0.00 0.00 0.00 24 1006.3
20260509031248 22 314 0.0 0.0 0.00 0.00 0.00 23 1006.4
20260509030746 22 357 0.0 0.0 0.00 0.00 0.00 20 1006.4
20260509030243 22 312 0.0 0.0 0.00 0.00 0.00 20 1006.4
20260509030127 22 299 0.0 0.0 0.00 0.00 0.00 20 1006.4
20260509025744 22 354 0.0 0.0 0.00 0.00 0.00 23 1006.5
20260509025253 22 10 0.0 0.0 0.00 0.00 0.00 23 1006.5
20260509024746 22 324 0.0 0.0 0.00 0.00 0.00 24 1006.5
20260509024235 22 350 0.0 0.0 0.00 0.00 0.00 21 1006.4
20260509023745 22 347 0.0 0.0 0.00 0.00 0.00 22 1006.4
20260509023241 22 340 0.0 0.0 0.00 0.00 0.00 22 1006.4
20260509023145 22 341 0.0 0.0 0.00 0.00 0.00 22 1006.4
20260509022747 21 322 0.0 0.0 0.00 0.00 0.00 23 1006.3
20260509022238 21 313 0.0 0.0 0.00 0.00 0.00 21 1006.3
20260509021751 21 331 0.0 0.0 0.00 0.00 0.00 21 1006.3
20260509021240 21 333 0.0 0.0 0.00 0.00 0.00 23 1006.5
20260509020736 21 316 0.0 0.0 0.00 0.00 0.00 22 1006.5
20260509020254 21 331 0.0 0.0 0.00 0.00 0.00 23 1006.5
20260509015743 21 303 0.0 0.0 0.00 0.00 0.00 23 1006.5
20260509015254 21 327 0.0 0.0 0.00 0.00 0.00 23 1006.5
20260509014750 21 2 0.0 0.0 0.00 0.00 0.00 23 1006.5
20260509014241 21 331 0.0 0.0 0.00 0.00 0.00 23 1006.5
20260509013754 21 300 0.0 0.0 0.00 0.00 0.00 23 1006.5
20260509013254 21 316 0.0 0.0 0.00 0.00 0.00 23 1006.5
20260509013138 21 337 0.0 0.0 0.00 0.00 0.00 24 1006.5
20260509012739 21 350 0.0 0.0 0.00 0.00 0.00 24 1006.4
20260509012248 21 26 0.0 0.0 0.00 0.00 0.00 22 1006.4
20260509011737 22 343 0.0 0.0 0.00 0.00 0.00 23 1006.4
20260509011247 21 316 0.0 0.0 0.00 0.00 0.00 23 1006.2
20260509010742 21 333 0.0 0.0 0.00 0.00 0.00 23 1006.2
20260509010253 21 302 0.0 0.0 0.00 0.00 0.00 24 1006.2
20260509010137 21 4 0.0 0.0 0.00 0.00 0.00 24 1006.2
20260509005740 21 319 0.0 0.0 0.00 0.00 0.00 24 1006.0
20260509005251 21 343 0.0 0.0 0.00 0.00 0.00 23 1006.0
20260509004743 21 290 0.0 0.0 0.00 0.00 0.00 22 1006.0
20260509004251 21 323 0.0 0.0 0.00 0.00 0.00 23 1006.0
20260509003740 21 351 0.0 0.0 0.00 0.00 0.00 24 1006.0
20260509003237 21 358 0.0 0.0 0.00 0.00 0.00 25 1006.0
20260509003141 21 49 0.0 0.0 0.00 0.00 0.00 25 1006.0
20260509002237 21 350 0.0 0.0 0.00 0.00 0.00 24 1005.5
20260509001747 21 307 0.0 0.0 0.00 0.00 0.00 25 1005.5
20260509000736 20 346 0.0 0.0 0.00 0.00 0.00 26 1005.5
20260509000255 20 36 0.0 0.0 0.00 0.00 0.00 26 1005.5
20260509000140 20 52 0.0 0.0 0.00 0.00 0.00 26 1005.5
20260508235239 20 42 0.0 0.0 0.00 0.00 0.00 26 1005.5
20260508234735 20 19 0.0 0.0 0.00 0.00 0.00 24 1005.5
20260508234245 20 346 0.0 0.0 0.00 0.00 0.00 24 1005.3
20260508233236 20 7 0.0 0.0 0.00 0.00 0.00 24 1005.3
20260508233144 20 346 0.0 0.0 0.00 0.00 0.00 23 1005.3
20260508232743 20 4 0.0 0.0 0.00 0.00 0.00 23 1004.9
20260508232236 20 8 0.0 0.0 0.00 0.00 0.00 23 1004.9
20260508231750 20 341 0.0 0.0 0.00 0.00 0.00 23 1004.9
20260508231241 20 26 0.0 0.0 0.00 0.00 0.00 23 1004.8
20260508230753 20 331 0.0 0.0 0.00 0.00 0.00 24 1004.8
20260508230255 20 317 0.0 0.0 0.00 0.00 0.00 24 1004.8
20260508230139 20 344 0.0 0.0 0.00 0.00 0.00 24 1004.8
20260508225239 19 320 0.0 0.0 0.00 0.00 0.00 24 1004.6
20260508224753 19 319 0.0 0.0 0.00 0.00 0.00 26 1004.6
20260508224244 18 336 0.0 0.0 0.00 0.00 0.00 26 1004.4
20260508223750 19 336 0.0 0.0 0.00 0.00 0.00 25 1004.5
20260508222740 19 26 0.0 0.0 0.00 0.00 0.00 26 1004.2
20260508222251 19 11 0.0 0.0 0.00 0.00 0.00 26 1004.2
20260508221745 19 12 0.0 0.0 0.00 0.00 0.00 27 1004.2
20260508220735 18 25 0.0 0.0 0.00 0.00 0.00 27 1003.8
20260508220254 18 26 0.0 0.0 0.00 0.00 0.00 28 1003.8
20260508220138 18 26 0.0 0.0 0.00 0.00 0.00 27 1003.8
20260508215736 18 25 0.0 0.0 0.00 0.00 0.00 28 1003.5
20260508215246 18 26 0.0 0.0 0.00 0.00 0.00 28 1003.5
20260508214740 17 26 0.0 0.0 0.00 0.00 0.00 29 1003.5
20260508214253 17 26 0.0 0.0 0.00 0.00 0.00 33 1003.3
20260508213743 16 26 0.0 0.0 0.00 0.00 0.00 34 1003.3
20260508213241 16 337 0.0 0.0 0.00 0.00 0.00 38 1003.3
20260508213146 16 337 0.0 0.0 0.00 0.00 0.00 38 1003.3
20260508212751 15 338 0.0 0.0 0.00 0.00 0.00 41 1003.1
20260508211742 15 338 0.0 0.0 0.00 0.00 0.00 46 1003.1
20260508211238 15 337 0.0 0.0 0.00 0.00 0.00 47 1002.8
20260508210739 15 337 0.0 0.0 0.00 0.00 0.00 49 1002.8
20260508210300 15 337 0.0 0.0 0.00 0.00 0.00 56 1002.8
20260508205748 15 337 0.0 0.0 0.00 0.00 0.00 59 1002.4
20260508205239 15 337 0.0 0.0 0.00 0.00 0.00 61 1002.4
20260508204752 15 337 0.0 0.0 0.00 0.00 0.00 61 1002.4
20260508204243 15 337 0.0 0.0 0.00 0.00 0.00 61 1002.2
20260508203255 15 337 0.0 0.0 0.00 0.00 0.00 62 1002.2
20260508203139 15 337 0.0 0.0 0.00 0.00 0.00 62 1002.2
20260508202741 15 337 0.0 0.0 0.00 0.00 0.00 62 1001.8
20260508202252 15 337 0.0 0.0 0.00 0.00 0.00 64 1001.8
20260508201240 15 337 0.0 0.0 0.00 0.00 0.00 63 1001.6
20260508200238 15 337 0.0 0.0 0.00 0.00 0.00 62 1001.6
20260508200142 15 337 0.0 0.0 0.00 0.00 0.00 62 1001.6
20260508195241 15 337 0.0 0.0 0.00 0.00 0.00 62 1001.3
20260508194253 15 338 0.0 0.0 0.00 0.00 0.00 61 1000.9
20260508193743 15 338 0.0 0.0 0.00 0.00 0.00 60 1000.9
20260508193238 15 338 0.0 0.0 0.00 0.00 0.00 61 1000.9
20260508193145 15 72 0.0 0.0 0.00 0.00 0.00 61 1000.9
20260508192745 15 15 0.0 0.0 0.00 0.00 0.00 60 1000.8
20260508192234 15 19 0.0 0.0 0.00 0.00 0.00 60 1000.8
20260508191750 15 18 0.0 0.0 0.00 0.00 0.00 60 1000.8
20260508191239 15 18 0.0 0.0 0.00 0.00 0.00 60 1001.0
20260508190734 15 19 0.0 0.0 0.00 0.00 0.00 59 1001.0
20260508190144 15 18 0.0 0.0 0.00 0.00 0.00 59 1001.0